RH
15 15 14 13 12 12 13 13 13 14 15 17 17 16 17 17 17 17 18 20 22 23 23 21 21 24 27 30 32 32 35 37 38 36 37 38 39 41 41 38 37 37
14 13 13 12 12 12 12 12 12 12 12 14 15 15 16 17 17 16 16 17 19 20 22 22 21 21 24 28 31 33 34 35 36 36 36 36 37 39 41 38 35 35
13 13 12 12 12 11 11 11 11 11 11 12 14 16 16 17 17 16 16 16 16 18 19 20 21 20 21 24 28 32 33 33 34 36 36 35 35 37 40 39 36 33
12 12 11 11 11 11 10 11 11 11 11 12 13 14 16 18 18 18 17 17 17 16 17 18 20 19 20 21 24 29 31 31 31 34 36 35 34 35 37 39 37 34
11 11 11 11 12 12 11 11 11 11 10 11 12 14 16 18 19 19 19 18 18 18 17 17 18 18 19 20 21 25 28 29 29 31 35 37 35 35 36 37 38 36
11 11 11 11 11 11 11 10 10 10 10 11 12 13 15 17 19 20 20 19 19 19 19 18 18 17 17 18 19 22 25 27 27 27 30 34 35 35 36 36 37 38
13 12 12 12 11 11 11 10 10 10 11 11 12 13 15 16 18 18 20 21 21 20 20 19 19 17 16 16 17 18 21 24 25 25 26 29 32 35 36 37 36 37
14 13 13 12 12 11 11 10 10 10 11 12 13 13 14 15 17 18 19 21 22 21 20 19 19 19 18 17 16 16 17 19 21 23 25 26 28 31 35 37 37 37
15 14 14 13 13 12 11 11 10 11 11 12 13 15 16 17 18 19 21 22 23 23 22 20 19 18 18 18 18 18 17 17 18 19 21 23 25 28 31 34 37 37
16 14 14 14 13 13 11 11 11 11 12 14 15 17 19 19 19 21 23 24 24 23 22 21 19 18 18 18 18 19 19 18 18 17 18 20 22 24 27 29 33 36
17 15 14 13 13 13 12 12 13 14 14 15 17 19 20 20 20 22 24 25 23 22 20 19 18 17 18 18 18 19 19 20 20 18 18 18 19 21 23 25 29 32
18 17 17 16 16 16 15 15 16 16 17 18 19 21 21 22 23 24 25 24 23 21 19 18 17 17 16 17 17 18 19 20 21 20 19 18 18 19 20 22 24 27
24 22 21 20 19 18 17 18 19 19 20 21 22 23 23 24 25 26 25 23 22 21 20 18 17 17 16 16 17 18 19 21 21 21 21 20 19 19 19 20 21 24
30 27 24 21 20 20 20 20 21 23 23 23 23 24 24 25 25 26 24 23 22 21 20 19 19 19 19 18 18 18 19 20 21 21 21 21 20 19 20 20 21 22
33 31 29 27 25 23 22 22 23 24 25 25 24 24 24 25 26 26 24 23 23 23 22 23 23 23 21 19 18 18 18 18 19 20 20 20 20 20 20 21 22 22
37 35 35 34 32 29 25 24 24 25 25 25 25 24 24 25 26 27 27 26 25 26 26 27 28 27 25 23 21 19 18 18 18 18 18 17 18 19 20 21 21 21
43 42 40 39 37 34 30 26 25 26 26 26 26 25 25 26 27 28 29 30 29 29 30 30 30 29 29 28 27 25 23 21 19 18 17 17 17 18 19 19 19 20
47 46 44 42 40 39 35 30 28 28 28 28 28 28 28 28 29 30 31 31 31 31 32 32 32 32 32 32 32 32 31 28 26 24 22 21 20 19 19 21 21 23
46 46 45 44 42 41 40 37 33 31 31 30 29 29 29 30 31 31 31 33 33 32 33 33 33 34 35 36 37 38 38 37 35 33 32 29 27 26 25 26 27 28
42 43 44 43 42 42 44 43 39 34 32 32 32 31 31 32 33 34 33 33 33 34 34 33 33 34 35 37 39 41 43 43 42 41 40 39 38 36 34 34 33 33
36 38 40 41 40 40 43 46 44 39 36 35 34 33 33 33 34 35 34 33 33 35 35 34 33 34 35 37 39 42 45 46 46 46 46 46 45 44 44 43 43 42
35 35 38 38 37 38 42 47 48 44 40 37 36 37 36 36 36 34 33 32 33 34 35 35 35 36 37 39 41 44 47 48 50 50 51 51 50 50 50 50 51 51
35 36 37 36 34 35 39 46 50 49 45 41 39 39 39 38 37 35 34 34 34 35 35 36 38 40 41 41 43 45 48 50 52 54 54 54 54 54 54 54 54 54
35 35 36 35 34 34 38 44 49 51 50 47 43 41 41 40 39 38 37 36 36 37 38 39 40 42 43 44 45 47 48 50 52 54 55 55 57 58 58 57 56 55
35 35 35 36 37 38 39 42 46 49 50 50 47 46 44 43 42 42 41 41 40 41 43 44 44 46 46 47 48 49 51 53 55 55 55 56 57 58 59 58 57 56
34 35 36 36 38 42 43 43 45 47 48 50 49 48 46 45 44 44 45 45 46 46 46 47 47 49 51 52 52 52 53 54 56 56 56 58 59 58 58 58 58 59